Location: Four Corners
(38.2757°N, 122.4608°W)
Time: 23:21:54
(UTC+00:00)

BREEZE-M DEB (TANK) - Pass Details

Date: 08 December 2019
Orbit: 437 x 13847 km, 45.9° (Epoch: 26 January)

Event Time Altitude Azimuth Distance (km) Brightness Sun altitude
Rises 02:39:57 0° 290° (WNW) 3,551 7.4 -21.1°
Reaches altitude 10° 02:43:20 10° 304° (NW) 1,956 5.7 -21.7°
Enters shadow 02:45:51 24° 343° (NNW) 1,025 3.7 -22.2°
